Погода в Уктуре

Россия / Хабаровский край     50°20′23″N   138°29′04″E
темп.,
°C
ветер,
м/с
пор.,
м/с
влажн.,
%
обл.,
%
осадки,
мм/ч
давл.,
гПа
погр.,
м
12 мая, ср
ср1201:00+3ю118054 0.0 101810
04:00+3юв118237 0.0 101918
07:00+5юв12705 0.0 1019191
10:00+12ююз12446 0.0 10161370
13:00+16вюв223323 0.0 10131941
16:00+17ююз1330100 0.0 10102428
19:00+14сз3547100 0.0 1011375
22:00+9вюв1168100 0.0 101112
13 мая, чт
чт1301:00+7ююз2276100 0.0 101241
04:00+7с0084100 0.1 101115
07:00+7св1181100 0.0 101099
10:00+9сз0072100 0.1 1009538
13:00+11зсз1165100 0.1 1008892
16:00+10юз2273100 0.5 1007681
19:00+10ююз1171100 0.1 1007268
22:00+8ю238687 0.1 1007145
14 мая, пт
пт1401:00+7ю2393100 0.3 1008108
04:00+7юв1194100 0.6 100719
07:00+8ююв1191100 0.1 1008104
10:00+9ссв0185100 0.3 1009403
13:00+10зюз128299 0.6 1009386
16:00+10юз2281100 1.6 1010537
19:00+9ю118638 0.3 1011296
22:00+6ююв119524 0.3 101212
15 мая, сб
сб1501:00+4юв119594 0.0 101211
04:00+4юв1195100 0.0 101114
07:00+6юв2391100 0.0 1008126
10:00+8юв3584100 0.0 1004289
13:00+10юв2681100 0.4 999555
16:00+9ююв2793100 3.4 996357
19:00+9юз6138491 3.0 9961356
22:00+8юз41289100 3.8 997924
16 мая, вс
вс1601:00+7юз513845 0.4 9951098
04:00+5зюз6138697 0.5 9961041
07:00+4зюз3989100 0.1 997826
10:00+4з2994100 0.2 998870
13:00+4сз3694100 0.2 999635
16:00+3сз2398100 0.7 1001185
19:00+4з2789100 0.1 1002717
22:00+2з268910 0.1 1002377